Powrót do katalogu

STARLINK-4720

AktywnyŁącznośćVLEO
NORAD 53800·PAYLOAD·🇺🇸 United States

Wystrzelony Sep 11, 2022 z Cape Canaveral Space Force Station

Loading…

Następne Przeloty (najbliższe 24 godziny)

TLE

ŚwieżeSource: CelesTrak SupGP

Epoka: Sep 15, 2026, 02:21 UTC

1 53800C 22111AD  26258.09840278  .00040276  00000+0  34844-3 0  2586
2 53800  53.2051  40.1900 0002150  93.7585 148.7415 15.68500434    10

Śledź STARLINK-4720 w czasie rzeczywistym z AllMySat

Download on the App Store